Location: Brachstadt
(48.6975°N, 10.6755°E)
Time: 00:57:20
(UTC+00:00)

NOSS 3-2 (A) - Visible Passes

Search period start: 24 January 2021 00:00
Search period end: 03 February 2021 00:00
Orbit: 789 x 1419 km, 63.4° (Epoch: 22 January)

Date Brightness Start Highest point End Pass type
(mag) Time Alt. Az. Time Alt. Az. Time Alt. Az.
24 Jan 6.0 03:38:58 10° SE 03:41:53 14° ESE 03:44:56 10° ENE visible
24 Jan 3.6 05:25:42 10° SSW 05:31:22 77° SE 05:37:56 10° NE visible
25 Jan 4.2 04:40:43 10° SSW 04:46:07 49° ESE 04:52:19 10° NE visible
26 Jan 5.0 03:56:09 10° S 04:01:03 31° ESE 04:06:29 10° NE visible
26 Jan 3.5 05:45:40 10° WSW 05:51:24 61° NW 05:58:05 10° NE visible
27 Jan 5.6 03:13:00 13° SE 03:16:07 19° ESE 03:20:17 10° ENE visible
27 Jan 3.3 05:00:28 12° SW 05:05:54 87° NW 05:12:34 10° NE visible
28 Jan 6.0 02:30:09 10° ESE 02:31:19 11° ESE 02:32:31 10° E visible
28 Jan 3.7 04:17:24 27° SSW 04:20:34 63° SE 04:26:59 10° NE visible
28 Jan 4.1 06:06:16 10° W 06:11:49 39° NNW 06:18:14 10° NE visible
29 Jan 4.4 03:34:06 35° SSE 03:35:23 40° ESE 03:41:17 10° NE visible
29 Jan 3.7 05:21:32 17° WSW 05:26:04 52° NW 05:32:41 10° NE visible
30 Jan 5.1 02:50:39 25° ESE 02:50:39 25° ESE 02:55:19 10° ENE visible
30 Jan 3.3 04:38:05 38° WSW 04:40:29 72° NW 04:47:10 10° NE visible
31 Jan 5.9 02:07:06 13° E 02:07:06 13° E 02:08:45 10° ENE visible
31 Jan 3.3 03:54:30 72° S 03:55:03 78° SE 04:01:38 10° NE visible
31 Jan 4.3 05:41:55 14° W 05:46:35 34° NNW 05:52:52 10° NE visible
01 Feb 4.2 03:10:50 46° E 03:10:50 46° E 03:16:00 10° NE visible
01 Feb 3.9 04:58:14 30° W 05:00:46 44° NW 05:07:18 10° NE visible
02 Feb 5.3 02:27:05 24° ENE 02:27:05 24° ENE 02:30:13 10° NE visible
02 Feb 3.4 04:14:29 57° WNW 04:15:06 60° NW 04:21:46 10° NE visible
02 Feb 4.8 06:02:10 10° WNW 06:07:24 27° NNW 06:13:19 10° NE visible
